Location: Ferchesar
(52.6477°N, 12.4298°E)
Time: 17:16:56
(UTC+01:00)

Vanguard 3 - Pass Details

Date: 11 December 2021
Orbit: 508 x 3260 km, 33.3° (Epoch: 22 January)

Event Time Altitude Azimuth Distance (km) Brightness Sun altitude
Rises 07:36:43 0° 272° (W) 7,230 11.4 -5.2°
Reaches altitude 10° 07:43:22 10° 260° (W) 6,147 11.2 -4.3°
Maximum altitude 07:55:35 22° 220° (SW) 4,727 11.0 -2.8°
Drops below altitude 10° 08:05:33 10° 178° (S) 4,898 11.8 -1.6°
Sets 08:10:03 0° 163° (SSE) 5,462 12.4 -1.0°
